Tracking 31027 objects as of 19-Jul-2025
HD Live streaming from Space Station
objects crossing your sky now

METEOR 2-20 DEB

Track METEOR 2-20 DEB now!
10-day predictions


NORAD ID: 44698
Int'l Code: 1990-086C
Perigee: 883.0 km
Apogee: 918.2 km
Inclination: 82.5 °
Period: 102.9 minutes
Semi major axis: 7271 km
RCS: Unknown
Launch date: September 28, 1990
Source: Commonwealth of Independent States (former USSR) (CIS)
Launch site: PLESETSK MISSILE AND SPACE COMPLEX (PKMTR)

Note: This is SATELLITE DEBRIS
Your satellite tracking list
SPACEBEE-134
Track 1 satellite(s)




NASA's NSSDC Master Catalog

Two Line Element Set (TLE):
1 44698U 90086C   25199.06177835  .00000528  00000-0  34748-3 0  9991
2 44698  82.5114  67.6883 0024174  43.7143 316.5935 14.00093811571431
Source of the keplerian elements: AFSPC